CAPE
3 4 4 6 2 5 5 0 4 3 1 1 0 0 0 0 0 0 0 0 0 0 0 0 0 0 0 0 0 0 0 0 0 0 0 0 0 0 0 0 0 0 0 0 0
0 2 3 5 4 5 3 3 2 1 1 0 0 0 0 0 0 0 0 0 0 0 0 0 0 0 0 0 0 0 0 0 0 0 0 0 0 0 0 0 0 0 0 0 0
0 0 1 2 3 3 1 0 0 0 0 0 0 0 0 0 0 0 0 0 0 0 0 0 0 0 0 0 0 0 0 0 0 0 0 0 0 0 0 0 0 0 0 0 0
0 0 0 0 0 1 1 0 0 0 0 0 0 0 0 0 0 0 0 0 0 0 0 0 0 0 0 0 0 0 0 0 0 0 0 0 0 0 0 0 0 0 0 0 0
0 0 0 0 0 0 0 0 0 0 0 0 0 0 0 0 0 0 0 0 0 0 0 0 0 0 0 0 0 0 0 0 0 0 0 0 0 0 0 0 0 0 0 0 0
0 0 0 0 0 0 0 0 0 0 0 0 0 0 0 0 0 0 0 0 0 0 0 0 0 0 0 0 0 0 0 0 0 0 0 0 0 0 0 0 0 0 0 0 0
0 0 0 0 0 0 0 0 0 0 0 0 0 0 0 0 0 0 0 0 0 0 0 0 0 0 0 0 0 0 0 0 0 0 0 0 0 0 0 0 0 0 0 0 0
0 0 0 0 0 0 0 0 0 0 0 0 0 0 0 0 0 0 0 0 0 0 0 0 0 0 0 0 0 0 0 0 0 0 0 0 0 0 0 0 0 0 0 0 0
0 0 0 0 0 0 0 0 0 0 0 0 0 0 0 0 0 0 0 0 0 0 0 0 0 0 0 0 0 0 0 0 0 0 0 0 0 0 0 0 0 0 0 0 0
0 0 0 0 0 0 0 0 0 0 0 0 0 0 0 0 0 0 0 0 0 0 0 0 0 0 0 0 0 0 0 0 0 0 0 0 0 0 0 0 0 0 0 0 0
0 0 0 0 0 0 0 0 0 0 0 0 0 0 0 0 0 0 0 0 0 0 0 0 0 0 0 0 0 0 0 0 0 0 0 0 0 0 0 0 0 0 0 0 0
0 0 0 0 0 0 0 0 0 0 0 0 0 0 0 0 0 0 0 0 0 0 0 0 0 0 0 0 0 0 0 0 0 0 0 0 0 0 0 0 0 0 0 0 0
1 0 0 0 0 0 0 0 0 0 0 0 0 0 0 0 0 0 0 0 0 0 0 0 0 0 0 0 0 0 0 0 0 0 0 0 0 0 0 0 0 0 0 0 0
0 0 0 0 0 0 0 0 0 0 0 0 0 0 0 0 0 0 0 0 0 0 0 0 0 0 0 0 0 0 0 0 0 0 0 0 0 0 0 0 0 0 0 0 0
1 0 0 0 0 0 0 0 0 0 0 0 0 0 0 0 0 0 0 0 0 0 0 0 0 0 0 0 0 0 0 0 0 0 0 0 0 0 0 0 0 0 0 0 0
0 0 0 0 0 0 0 0 0 0 0 0 0 0 0 0 0 0 0 0 0 0 0 0 0 0 0 0 0 0 0 0 0 0 0 0 0 0 0 0 0 0 0 0 0
0 0 0 0 0 0 0 0 0 0 0 0 0 0 0 0 0 0 0 0 0 0 0 0 0 0 0 0 0 0 0 0 0 0 0 0 0 0 0 0 0 0 0 0 0
0 0 0 0 0 0 0 0 0 0 0 0 0 0 0 0 0 0 0 0 0 0 0 0 0 0 0 0 0 0 0 0 0 0 0 0 0 0 0 0 0 0 0 0 0
0 0 0 0 0 0 0 0 0 0 0 0 0 0 0 0 0 0 0 0 0 0 0 0 0 0 0 0 0 0 0 0 0 0 0 0 0 0 0 0 0 0 0 0 0
0 0 0 0 0 0 0 0 0 0 0 0 0 0 0 0 0 0 0 0 0 0 0 0 0 0 0 0 0 0 0 0 0 0 0 0 0 0 0 0 0 0 0 0 0
0 1 0 0 0 0 1 2 5 0 0 0 0 0 0 0 0 0 0 0 0 0 0 0 0 0 0 0 0 0 0 0 0 0 0 0 0 0 0 0 0 0 0 0 0
0 0 0 0 0 0 1 1 0 0 0 0 0 0 0 0 0 0 0 0 0 0 0 0 0 0 0 0 0 0 0 0 0 0 0 0 0 0 0 0 0 0 0 0 0
0 0 0 0 1 0 0 0 0 0 0 0 0 0 0 0 0 0 0 0 0 0 0 0 0 0 0 0 0 0 0 0 0 0 0 0 0 0 0 0 0 0 0 0 0
0 1 1 0 1 0 0 0 0 0 0 0 0 0 0 0 0 0 0 0 0 0 0 0 0 0 0 0 0 0 0 0 0 0 0 0 0 0 0 0 0 0 0 0 0
0 0 0 0 0 0 0 0 0 0 0 0 0 0 0 0 0 0 0 0 0 0 0 0 0 0 0 0 0 0 0 0 0 0 0 0 0 0 0 0 0 0 0 0 0
1 4 0 1 0 0 0 0 0 0 0 0 0 0 0 0 0 0 0 0 0 0 0 0 0 0 0 0 0 0 0 0 0 0 0 0 0 0 0 0 0 0 0 0 0
0 0 0 0 0 0 0 0 0 0 0 0 0 0 0 0 0 0 0 0 0 0 0 0 0 0 0 0 0 0 0 0 0 0 0 0 0 0 0 0 0 0 0 0 0
CIN
-0 -0 -0 -0 -0 -0 -0 -0 -0 -0 -0 -0 -0 -0 -0 -0 -0 -0 -0 -0 -0 -0 -0 -0 -0 -0 -0 -0 -0 -0 -0 -0 -0 -0 -0 -0 -0 -0 -0 -0 -0 -0 -0 -0 -0
-0 -0 -0 -0 -0 -0 -0 -0 -0 -0 -0 -0 -0 -0 -0 -0 -0 -0 -0 -0 -0 -0 -0 -0 -0 -0 -0 -0 -0 -0 -0 -0 -0 -0 -0 -0 -0 -0 -0 -0 -0 -0 -0 -0 -0
-0 -0 -0 -0 -0 -0 -0 -0 -0 -0 -0 -0 -0 -0 -0 -0 -0 -0 -0 -0 -0 -0 -0 -0 -0 -0 -0 -0 -0 -0 -0 -0 -0 -0 -0 -0 -0 -0 -0 -0 -0 -0 -0 -0 -0
-0 -0 -0 -0 -0 -0 -0 -0 -0 -0 -0 -0 -0 -0 -0 -0 -0 -0 -0 -0 -0 -0 -0 -0 -0 -0 -0 -0 -0 -0 -0 -0 -0 -0 -0 -0 -0 -0 -0 -0 -0 -0 -0 -0 -0
-0 -0 -0 -0 -0 -0 -0 -0 -0 -0 -0 -0 -0 -0 -0 -0 -0 -0 -0 -0 -0 -0 -0 -0 -0 -0 -0 -0 -0 -0 -0 -0 -0 -0 -0 -0 -0 -0 -0 -0 -0 -0 -0 -0 -0
-0 -0 -0 -0 -0 -0 -0 -0 -0 -0 -0 -0 -0 -0 -0 -0 -0 -0 -0 -0 -0 -0 -0 -0 -0 -0 -0 -0 -0 -0 -0 -0 -0 -0 -0 -0 -0 -0 -0 -0 -0 -0 -0 -0 -0
-0 -0 -0 -0 -0 -0 -0 -0 -0 -0 -0 -0 -0 -0 -0 -0 -0 -0 -0 -0 -0 -0 -0 -0 -0 -0 -0 -0 -0 -0 -0 -0 -0 -0 -0 -0 -0 -0 -0 -0 -0 -0 -0 -0 -0
-0 -0 -0 -0 -0 -0 -0 -0 -0 -0 -0 -0 -0 -0 -0 -0 -0 -0 -0 -0 -0 -0 -0 -0 -0 -0 -0 -0 -0 -0 -0 -0 -0 -0 -0 -0 -0 -0 -0 -0 -0 -0 -0 -0 -0
-0 -0 -0 -0 -0 -0 -0 -0 -0 -0 -0 -0 -0 -0 -0 -0 -0 -0 -0 -0 -0 -0 -0 -0 -0 -0 -0 -0 -0 -0 -0 -0 -0 -0 -0 -0 -0 -0 -0 -0 -0 -0 -0 -0 -0
-0 -0 -0 -0 -0 -0 -0 -0 -0 -0 -0 -0 -0 -0 -0 -0 -0 -0 -0 -0 -0 -0 -0 -0 -0 -0 -0 -0 -0 -0 -0 -0 -0 -0 -0 -0 -0 -0 -0 -0 -0 -0 -0 -0 -0
-0 -0 -0 -0 -0 -0 -0 -0 -0 -0 -0 -0 -0 -0 -0 -0 -0 -0 -0 -0 -0 -0 -0 -0 -0 -0 -0 -0 -0 -0 -0 -0 -0 -0 -0 -0 -0 -0 -0 -0 -0 -0 -0 -0 -0
-0 -0 -0 -0 -0 -0 -0 -0 -0 -0 -0 -0 -0 -0 -0 -0 -0 -0 -0 -0 -0 -0 -0 -0 -0 -0 -0 -0 -0 -0 -0 -0 -0 -0 -0 -0 -0 -0 -0 -0 -0 -0 -0 -0 -0
-0 -0 -0 -0 -0 -0 -0 -0 -0 -0 -0 -0 -0 -0 -0 -0 -0 -0 -0 -0 -0 -0 -0 -0 -0 -0 -0 -0 -0 -0 -0 -0 -0 -0 -0 -0 -0 -0 -0 -0 -0 -0 -0 -0 -0
-0 -0 -0 -0 -0 -0 -0 -0 -0 -0 -0 -0 -0 -0 -0 -0 -0 -0 -0 -0 -0 -0 -0 -0 -0 -0 -0 -0 -0 -0 -0 -0 -0 -0 -0 -0 -0 -0 -0 -0 -0 -0 -0 -0 -0
-6 -0 -0 -0 -0 -0 -0 -0 -0 -0 -0 -0 -0 -0 -0 -0 -0 -0 -0 -0 -0 -0 -0 -0 -0 -0 -0 -0 -0 -0 -0 -0 -0 -0 -0 -0 -0 -0 -0 -0 -0 -0 -0 -0 -0
-0 -0 -0 -0 -0 -0 -0 -0 -0 -0 -0 -0 -0 -0 -0 -0 -0 -0 -0 -0 -0 -0 -0 -0 -0 -0 -0 -0 -0 -0 -0 -0 -0 -0 -0 -0 -0 -0 -0 -0 -0 -0 -0 -0 -0
-0 -0 -0 -0 -0 -0 -0 -0 -0 -0 -0 -0 -0 -0 -0 -0 -0 -0 -0 -0 -0 -0 -0 -0 -0 -0 -0 -0 -0 -0 -0 -0 -0 -0 -0 -0 -0 -0 -0 -0 -0 -0 -0 -0 -0
-0 -0 -0 -0 -0 -0 -0 -0 -0 -0 -0 -0 -0 -0 -0 -0 -0 -0 -0 -0 -0 -0 -0 -0 -0 -0 -0 -0 -0 -0 -0 -0 -0 -0 -0 -0 -0 -0 -0 -0 -0 -0 -0 -0 -0
-0 -0 -0 -0 -0 -0 -0 -0 -0 -0 -0 -0 -0 -0 -0 -0 -0 -0 -0 -0 -0 -0 -0 -0 -0 -0 -0 -0 -0 -0 -0 -0 -0 -0 -0 -0 -0 -0 -0 -0 -0 -0 -0 -0 -0
-0 -0 -0 -0 -0 -0 -1 -0 -0 -0 -0 -0 -0 -0 -0 -0 -0 -0 -0 -0 -0 -0 -0 -0 -0 -0 -0 -0 -0 -0 -0 -0 -0 -0 -0 -0 -0 -0 -0 -0 -0 -0 -0 -0 -0
-0 -14 -0 -0 -0 -0 -0 -3 -16 -0 -0 -0 -0 -0 -0 -0 -0 -0 -0 -0 -0 -0 -0 -0 -0 -0 -0 -0 -0 -0 -0 -0 -0 -0 -0 -0 -0 -0 -0 -0 -0 -0 -0 -0 -0
-0 -0 -0 -0 -2 -0 -4 -15 -0 -0 -0 -0 -0 -0 -0 -0 -0 -0 -0 -0 -0 -0 -0 -0 -0 -0 -0 -0 -0 -0 -0 -0 -0 -0 -0 -0 -0 -0 -0 -0 -0 -0 -0 -0 -0
-5 -0 -0 -0 -1 -0 -0 -0 -0 -0 -0 -0 -0 -0 -0 -0 -0 -0 -0 -0 -0 -0 -0 -0 -0 -0 -0 -0 -0 -0 -0 -0 -0 -0 -0 -0 -0 -0 -0 -0 -0 -0 -0 -0 -0
-0 -0 -0 -0 -0 -0 -0 -0 -0 -0 -0 -0 -0 -0 -0 -0 -0 -0 -0 -0 -0 -0 -0 -0 -0 -0 -0 -0 -0 -0 -0 -0 -0 -0 -0 -0 -0 -0 -0 -0 -0 -0 -0 -0 -0
-0 -2 -0 -0 -0 -0 -0 -0 -0 -0 -0 -0 -0 -0 -0 -0 -0 -0 -0 -0 -0 -0 -0 -0 -0 -0 -0 -0 -0 -0 -0 -0 -0 -0 -0 -0 -0 -0 -0 -0 -0 -0 -0 -0 -0
-8 -13 -0 -0 -0 -0 -0 -0 -0 -0 -0 -0 -0 -0 -0 -0 -0 -0 -0 -0 -0 -0 -0 -0 -0 -0 -0 -0 -0 -0 -0 -0 -0 -0 -0 -0 -0 -0 -0 -0 -0 -0 -0 -0 -0
-0 -0 -0 -0 -0 -0 -0 -0 -0 -0 -0 -0 -0 -0 -0 -0 -0 -0 -0 -0 -0 -0 -0 -0 -0 -0 -0 -0 -0 -0 -0 -0 -0 -0 -0 -0 -0 -0 -0 -0 -0 -0 -0 -0 -0
Wind_Speed
18 17 17 17 17 17 17 17 16 17 17 18 18 19 20 20 19 23 21 23 25 26 26 25 22 21 18 17 17 14 17 21 22 22 19 23 25 22 24 22 25 24 27 29 31
18 18 17 16 16 17 18 18 19 19 20 20 20 20 20 20 18 23 24 25 26 27 26 24 23 22 18 18 17 16 19 20 19 19 21 23 26 27 25 29 28 30 31 32 32
18 19 18 18 18 18 19 20 20 21 21 21 20 19 19 19 18 23 28 27 28 27 26 18 16 19 19 18 19 17 19 18 18 20 21 22 24 26 26 27 26 36 34 34 34
20 19 20 21 21 22 21 21 20 20 20 20 19 20 21 20 20 24 28 27 26 26 25 22 19 18 18 19 18 18 17 17 17 19 21 24 25 27 29 30 34 33 31 33 34
21 21 21 22 24 25 24 23 23 22 22 21 21 22 20 20 21 24 27 27 24 26 26 22 21 19 18 18 17 17 19 18 18 20 21 23 25 29 36 33 29 27 30 31 32
21 22 24 25 26 27 26 25 24 23 23 22 22 23 20 20 19 24 27 25 26 25 25 22 20 19 18 19 18 17 18 18 19 19 21 25 31 31 31 27 31 31 30 32 30
23 24 26 27 28 28 27 25 25 24 23 24 24 21 20 19 21 25 27 22 24 24 21 21 21 20 18 19 17 17 23 24 17 21 24 28 31 27 31 28 28 27 29 27 30
24 26 26 27 28 28 29 26 24 23 24 23 22 19 18 18 20 25 26 20 23 22 20 20 21 19 19 18 18 22 21 30 24 22 24 27 34 33 32 29 34 34 27 30 32
25 26 27 28 29 29 29 26 22 22 24 22 20 19 18 18 22 23 24 23 22 21 21 20 19 19 20 22 23 25 31 30 29 26 27 27 38 38 31 34 31 28 28 29 31
26 26 28 29 30 30 30 22 22 22 24 21 19 19 19 22 20 21 22 22 22 23 22 21 20 21 22 25 32 30 30 26 32 28 32 34 36 36 33 28 28 25 27 27 32
25 26 28 29 31 31 29 23 26 21 26 24 20 18 18 22 19 20 24 23 24 22 23 22 22 24 22 21 21 22 26 32 28 27 37 38 38 33 32 22 19 23 24 28 33
25 26 27 29 30 30 26 24 22 22 26 20 18 17 17 20 22 22 27 24 25 23 23 22 22 19 20 20 22 24 29 32 29 30 40 39 38 32 23 18 17 19 24 30 38
23 25 26 29 28 24 25 24 22 21 26 21 19 17 18 20 22 22 26 23 23 22 23 23 20 18 20 22 24 25 28 31 34 39 31 35 35 29 25 18 17 20 25 34 42
23 22 26 30 23 24 24 23 22 23 26 21 20 19 18 21 21 24 23 22 21 22 22 19 17 19 21 23 22 29 25 32 36 39 38 33 39 32 21 19 18 24 32 40 42
23 19 22 24 24 23 22 24 23 22 31 20 19 17 19 22 26 22 22 21 21 21 20 21 19 20 23 21 21 24 30 31 32 29 32 30 32 27 21 20 20 28 36 38 37
18 17 19 21 23 22 22 24 21 25 29 21 20 21 24 24 24 24 23 21 22 21 20 19 19 20 19 20 21 25 30 30 26 27 33 30 31 29 22 21 22 26 35 37 37
15 17 20 20 23 22 24 23 26 26 21 23 22 22 26 27 26 24 23 22 23 25 22 22 20 18 18 23 22 29 32 33 31 33 34 27 32 18 21 21 22 28 36 38 39
16 18 21 21 21 23 23 23 28 23 23 22 23 26 26 25 23 25 23 22 20 19 21 22 24 18 19 22 24 27 27 29 35 38 35 29 23 21 19 20 22 28 34 38 40
15 20 21 23 23 21 22 25 25 23 21 23 25 26 22 22 24 24 20 20 18 17 20 23 21 19 20 19 20 23 26 22 28 29 32 26 22 24 20 21 26 31 40 41 41
18 20 22 23 21 19 21 25 22 20 20 22 25 21 24 23 24 22 21 19 18 18 18 19 26 21 19 19 20 19 19 27 27 34 38 31 26 16 24 19 29 37 37 37 38
19 23 21 20 18 19 22 21 21 19 20 21 21 23 23 25 21 20 20 19 18 18 18 19 21 23 22 19 19 20 21 21 22 24 30 34 25 18 25 21 27 33 32 32 35
19 22 20 17 20 20 22 22 20 20 19 19 20 22 21 19 22 20 19 18 16 16 20 18 22 26 24 20 15 16 18 18 24 27 24 26 22 23 20 19 22 29 28 28 35
19 21 18 17 23 24 23 23 23 21 21 20 21 18 19 19 22 18 19 17 15 15 18 18 23 31 27 22 19 18 17 16 20 22 23 26 21 23 20 19 21 25 23 27 33
17 23 19 18 21 22 22 24 25 21 21 18 18 17 20 21 18 21 19 18 15 16 17 19 21 21 24 25 22 23 22 16 14 21 24 18 17 20 13 13 17 21 21 26 31
18 22 18 23 21 19 19 21 22 23 19 18 21 17 19 23 21 20 20 21 18 17 18 19 26 24 21 20 22 19 20 16 13 13 18 18 16 18 22 19 13 17 20 21 29
21 22 21 23 22 18 17 22 23 22 20 21 20 21 16 20 19 22 20 20 23 17 18 19 28 28 29 26 24 24 21 17 12 12 12 14 15 20 19 10 17 18 18 16 25
19 20 21 25 24 25 24 22 23 19 21 20 19 19 18 17 17 20 20 21 21 20 18 21 24 29 31 27 33 31 20 13 12 12 12 15 12 19 20 18 17 18 16 13 20
Wind_Direction
327 318 316 315 314 312 308 306 301 300 299 296 294 293 293 304 325 352 339 319 315 307 305 325 342 347 3 2 1 3 342 332 331 331 332 341 335 340 334 329 324 317 311 311 312
330 327 320 315 311 312 312 309 307 307 308 306 304 305 304 307 338 350 328 319 321 320 325 336 351 353 359 4 6 359 341 338 347 345 335 336 335 333 331 323 319 314 313 314 314
327 327 322 318 314 311 308 309 309 314 316 315 313 308 309 323 346 333 326 328 327 320 338 12 25 8 3 6 3 4 343 348 353 350 346 339 337 335 330 325 320 312 312 313 312
332 326 326 326 323 322 317 313 311 312 312 311 309 313 319 350 340 340 331 330 327 330 352 2 5 6 5 0 10 355 4 359 352 349 344 337 335 331 322 317 314 314 317 316 313
332 330 328 329 330 330 326 322 326 325 325 317 318 320 348 347 353 342 332 338 347 352 359 1 1 9 4 7 9 2 355 355 350 345 341 337 332 326 318 319 323 323 318 315 315
331 331 334 333 333 334 327 327 334 334 333 326 322 324 358 348 1 341 335 352 358 2 5 4 7 14 14 9 5 5 358 352 351 348 342 337 331 329 327 326 322 321 319 318 319
336 335 335 338 336 331 329 333 347 342 336 332 328 351 2 7 356 347 345 9 8 9 15 9 8 13 13 3 9 6 351 353 354 345 340 338 333 332 331 328 328 325 322 324 323
337 337 331 330 327 327 332 343 359 354 349 346 347 4 5 18 5 356 352 13 6 12 11 8 5 12 12 9 6 356 356 343 350 346 342 341 329 332 331 328 324 320 324 322 321
336 336 333 327 324 324 328 342 359 351 356 353 3 8 359 12 7 359 1 9 10 12 6 2 5 8 5 357 349 352 338 341 343 343 342 339 326 328 331 326 325 327 326 324 323
333 337 335 332 326 324 325 357 358 347 358 358 6 3 0 357 10 5 6 8 7 358 359 2 2 358 359 353 337 339 340 344 338 343 336 333 327 328 331 328 325 328 329 329 327
332 334 333 330 330 327 340 356 352 352 352 350 352 355 359 357 10 10 3 360 356 357 352 355 351 348 354 359 355 350 343 338 339 342 335 332 329 332 335 340 339 336 335 332 331
333 331 331 330 332 333 351 360 3 355 340 354 353 355 2 1 352 357 355 356 353 352 353 354 349 360 358 357 352 348 341 340 343 345 336 336 335 339 346 341 343 344 341 338 334
333 333 331 331 336 352 356 358 359 0 340 345 350 347 348 354 349 351 354 356 354 352 352 347 352 358 355 352 349 347 343 342 338 339 344 342 340 349 354 360 356 351 346 340 337
331 332 328 324 340 347 350 353 357 352 333 340 344 348 352 349 346 349 353 353 353 349 351 353 360 355 353 349 350 344 350 342 339 340 342 350 339 345 355 355 355 350 344 341 341
328 335 333 337 332 341 346 345 348 350 319 340 343 354 347 343 339 345 350 348 346 347 350 348 351 351 347 352 353 347 345 341 339 343 347 352 346 352 356 352 352 350 346 347 346
334 337 336 337 334 335 342 341 347 330 317 332 338 338 337 338 339 339 341 346 342 345 344 346 350 348 352 352 353 349 347 349 355 352 348 353 351 350 358 355 352 353 351 350 349
336 338 334 336 329 333 333 335 324 317 333 329 331 336 334 332 334 337 338 338 339 339 344 346 349 354 356 350 356 352 352 347 347 347 348 356 346 349 358 357 359 355 354 354 353
328 329 331 331 332 328 330 324 311 321 320 327 328 329 328 334 335 335 336 336 340 344 343 345 342 353 356 351 350 354 357 353 344 344 343 351 352 358 359 3 4 360 358 357 356
334 323 324 327 325 328 323 312 315 320 324 326 328 327 331 335 336 336 339 337 344 346 342 341 342 350 350 356 357 354 353 1 349 350 348 358 353 345 351 356 359 358 358 357 359
326 325 322 325 325 325 319 313 317 325 326 327 323 330 326 332 334 337 338 340 342 342 347 344 336 346 350 356 355 356 4 351 355 349 347 352 349 355 353 356 355 356 358 360 1
323 319 325 328 329 322 314 317 320 324 325 325 325 324 325 326 330 332 333 336 341 344 345 343 339 340 344 346 347 352 352 357 357 355 351 351 354 359 352 358 358 358 360 2 2
314 315 328 330 314 316 314 316 322 322 326 325 327 325 326 332 330 330 329 334 347 347 339 341 336 331 335 344 355 353 350 354 350 351 350 348 342 352 360 5 2 358 360 5 6
316 316 323 323 308 307 311 312 315 316 318 322 322 328 332 330 327 329 331 342 345 342 341 343 334 329 332 340 345 344 349 346 348 350 345 345 345 356 359 359 357 356 0 8 11
316 310 319 311 309 309 310 309 309 316 317 322 323 328 325 324 325 327 330 337 341 338 338 340 331 325 322 325 333 331 335 336 339 342 347 333 316 276 293 324 345 359 5 11 14
306 304 309 307 304 305 307 312 312 312 318 321 319 317 323 321 323 320 322 325 331 334 334 333 324 325 322 317 318 314 317 321 312 310 337 324 335 272 279 289 317 2 11 15 16
296 299 304 301 304 303 299 304 300 306 311 314 310 317 315 318 319 320 324 324 323 331 329 330 322 327 324 323 321 321 315 307 297 305 290 301 294 268 274 349 6 11 16 20 23
290 300 298 297 293 292 294 296 302 304 307 310 312 314 311 310 315 320 324 326 323 323 323 326 324 326 323 329 323 322 332 341 348 347 350 348 338 349 353 1 7 14 21 29 31